Volver al catálogo

QIANFAN-70

ActivoComunicacionesPO
NORAD 62800·PAYLOAD·🇨🇳 China

Lanzado Jan 23, 2025 desde Taiyuan Satellite Launch Center

Loading…

Próximos Pases (próximas 24 horas)

TLE

ActualizadoSource: Space-Track

Época: Sep 14, 2026, 21:28 UTC

1 62800U 25016R   26257.89483215  .00000055  00000-0  65982-4 0  9996
2 62800  88.9665  74.4271 0013566 256.0671 103.8972 13.51023541 84527

Sigue QIANFAN-70 en tiempo real con AllMySat

Download on the App Store